Location: Gisborne
(38.6530°S, 178.0040°E)
Time: 09:40:07
(UTC+13:00)

Cosmos 2333 Rocket - Pass Details

Date: 24 January 2019
Orbit: 840 x 862 km, 70.8° (Epoch: 21 October)

Event Time Altitude Azimuth Distance (km) Brightness Sun altitude
Exits shadow 23:33:21 79° 58° (ENE) 891 2.1 -27.0°
Maximum altitude 23:33:26 79° 69° (ENE) 891 2.1 -27.0°
Drops below altitude 10° 23:39:16 10° 155° (SSE) 2,526 5.1 -27.5°
Sets 23:41:44 0° 155° (SSE) 3,467 5.9 -27.7°
